Regional Weather Roundup
Issued by NWS

Home | Current Version | Previous Version | Text Only | Print | Product List | Glossary On
Versions: 1 2 3 4 5 6 7 8 9 10 11 12 13 14 15 16 17 18 19 20 21 22 23 24 25 26 27 28 29 30 31 32 33 34 35 36 37 38 39 40 41 42 43 44 45 46 47 48 49 50
000
ASUS43 KOAX 292210
RWRNE

WEATHER ROUNDUP FOR NEBRASKA
NATIONAL WEATHER SERVICE OMAHA NE
500 PM CDT TUE JUL 29 2014

NOTES: SATELLITE DATA IS BEING USED TO AUGMENT CLOUD COVER ABOVE
       12000 FEET.
       "FAIR" INDICATES FEW OR NO CLOUDS BELOW 12,000 FEET WITH NO
       SIGNIFICANT WEATHER AND/OR OBSTRUCTIONS TO VISIBILITY.

  * THESE STATIONS DO NOT REPORT WEATHER SUCH AS RAIN...SNOW OR FOG.

NEZ001>004-019>022-054>056-292300-
NEBRASKA PANHANDLE

CITY           SKY/WX    TMP DP  RH WIND       PRES   REMARKS
SCOTTSBLUFF    PTSUNNY   78  61  55 NE20G25   30.17S
ALLIANCE       CLOUDY    79  53  40 E18G24    30.17F
CHADRON        PTSUNNY   77  57  50 NE14      30.19F
KIMBALL        CLOUDY    78  52  40 E10       30.17F
SIDNEY         CLOUDY    83  55  38 SE12G21   30.16F
$$

NEZ057>060-069>072-079>082-292300-
SOUTHWEST NEBRASKA

CITY           SKY/WX    TMP DP  RH WIND       PRES   REMARKS
NORTH PLATTE   MOSUNNY   82  59  45 E14       30.14F
IMPERIAL       MOSUNNY   85  60  42 E15       30.12F
LEXINGTON      MOSUNNY   80  61  51 E9        30.16F
MCCOOK         PTSUNNY   85  58  39 E15       30.11F
OGALLALA       PTSUNNY   80  61  51 E12G18    30.14F
$$

NEZ005>010-023>029-035>040-094-292300-
NORTH CENTRAL NEBRASKA

CITY           SKY/WX    TMP DP  RH WIND       PRES   REMARKS
VALENTINE      CLOUDY    75  52  44 N7        30.20F
AINSWORTH      CLOUDY    74  55  50 NE5       30.20F
BROKEN BOW     PTSUNNY   78  61  55 E6        30.18S
O`NEILL        CLOUDY    77  50  38 NW5       30.18F
ORD            PTSUNNY   78  57  48 SE3       30.16F
THEDFORD       MOSUNNY   79  58  48 E8        30.20F
$$

NEZ041-046>049-061>064-073>077-083>087-292300-
SOUTH CENTRAL NEBRASKA

CITY           SKY/WX    TMP DP  RH WIND       PRES   REMARKS
GRAND ISLAND   PTSUNNY   78  58  49 MISG      30.17F
AURORA         PTSUNNY   78  58  50 SE5       30.16F
HASTINGS       MOSUNNY   78  55  44 E9        30.16F
HEBRON         SUNNY     80  53  39 E3        30.14F
HOLDREGE       SUNNY     79  57  47 E9G16     30.15F
KEARNEY *      MOSUNNY   79  57  47 E10       30.17S
YORK           MOSUNNY   77  57  50 E6        30.16F
$$

NEZ011>018-030>034-042>045-292300-
NORTHEAST NEBRASKA

CITY           SKY/WX    TMP DP  RH WIND       PRES   REMARKS
NORFOLK        PTSUNNY   77  52  41 N8        30.16F
ALBION         CLOUDY    74  55  50 CALM      30.18S
BLAIR          PTSUNNY   75  52  44 N8        30.15F
COLUMBUS *     PTSUNNY   77  55  47 N6        30.16F
FREMONT        MOSUNNY   78  52  40 N7        30.16F
TEKAMAH        PTSUNNY   77  54  44 N9        30.15F
WAYNE          PTSUNNY   77  55  46 N8        30.17F
$$

NEZ050>053-065>068-078-088>093-292300-
SOUTHEAST NEBRASKA

CITY           SKY/WX    TMP DP  RH WIND       PRES   REMARKS
LINCOLN        MOSUNNY   81  53  37 N13       30.15F
OMAHA EPPLEY   PTSUNNY   80  52  37 N8        30.14F
BEATRICE       MOSUNNY   80  58  46 N9        30.13F
FALLS CITY     SUNNY     81  55  40 VRB5      30.12F
NEBRASKA CITY  MOSUNNY   78  55  44 N5        30.14F
PLATTSMOUTH    MOSUNNY   78  51  38 N5        30.14F
$$

NEZ044-045-051>053-067-292300-
OMAHA AREA

CITY           SKY/WX    TMP DP  RH WIND       PRES   REMARKS
OMAHA EPPLEY   PTSUNNY   80  52  37 N8        30.14F
BLAIR          PTSUNNY   75  52  44 N8        30.15F
FREMONT        MOSUNNY   78  52  40 N7        30.16F
MILLARD        MOSUNNY   77  53  41 NW6       30.14F
PLATTSMOUTH    MOSUNNY   78  51  38 N5        30.14F
WAHOO          FAIR      80  54  40 N6        30.15F
$$



USA.gov is the U.S. government's official web portal to all federal, state and local government web resources and services.